Weather in Kurortnoe

Russia / Republic of Crimea     44°59′46″N   34°21′44″E
temp.,
°C
wind,
m/s
gust,
m/s
humid.,
%
clouds,
%
prec.,
mm/h
press.,
hPa
HPBL,
m
3 march, wed
wed300:00+1sw7128582 0.0 1024553
03:00+2wsw8139090 0.0 1023593
06:00+1nnw5895100 0.1 1022428
09:00+1nnw4884100 0.1 1025731
12:00+4nnw466985 0.0 1026871
15:00+6nnw565744 0.0 10271282
18:00+4nw35620 0.0 1027794
21:00+2wsw23739 0.0 102865
4 march, thu
thu400:00+1ssw23791 0.0 102854
03:00+1ssw33786 0.0 102853
06:00+1ssw33780 0.0 102658
09:00+3ssw35660 0.0 1026314
12:00+6wsw46560 0.0 1025876
15:00+7wsw57540 0.0 1023928
18:00+5sw57630 0.0 1020542
21:00+2ssw367515 0.0 1020169
5 march, fri
fri500:00+2s45692 0.0 1019111
03:00+2ssw47611 0.0 1018123
06:00+3ssw45560 0.0 101786
09:00+6s48552 0.0 1016199
12:00+11sw610480 0.0 1015900
15:00+12sw812410 0.0 10141120
18:00+9sw6155232 0.0 1013604
21:00+7ssw5135665 0.0 1014343
6 march, sat
sat600:00+7sw51265100 0.0 1014301
03:00+6sw5117284 0.0 1014250
06:00+5ssw467962 0.0 1014120
09:00+7ssw257581 0.0 1015179
12:00+6nne4587100 0.0 1016305
15:00+3n5795100 0.1 1017325
18:00+1nnw3796100 3.0 1020546
21:00+1nnw4771100 3.2 1023915
7 march, sun
sun700:00−1nnw397589 0.0 1026553
03:00−3n377280 0.0 1027510
06:00−3nw116516 0.0 102875
09:00−2w24498 0.0 1029665
12:00+1w45440 0.0 10291363
15:00+1w55480 0.0 10261273
18:000w45570 0.0 1025740
21:00−2sw34650 0.0 1024152